Location: Saddleback Butte
(34.6776°N, 117.8050°W)
Time: 02:28:53
(UTC-07:00)

Iridium 35 - Visible Passes

Search period start: 28 August 2015 00:00
Search period end: 07 September 2015 00:00
Orbit: 776 x 779 km, 86.4° (Epoch: 27 August)

Date Brightness Start Highest point End Pass type
(mag) Time Alt. Az. Time Alt. Az. Time Alt. Az.
28 Aug 8.1 04:26:25 10° NE 04:28:37 13° ENE 04:31:09 10° ESE visible
29 Aug 5.3 05:31:10 10° N 05:36:23 73° E 05:41:35 10° S visible
30 Aug 6.6 04:57:58 10° NNE 05:02:46 37° E 05:07:35 10° SSE visible
31 Aug 7.7 04:25:21 10° NNE 04:28:59 20° ENE 04:32:47 10° SE visible
01 Sep 5.0 05:31:15 10° N 05:36:29 76° W 05:41:41 10° S visible
02 Sep 5.8 04:57:50 10° N 05:02:57 55° E 05:08:03 10° SSE visible
03 Sep 7.0 04:24:49 10° NNE 04:29:16 29° E 04:33:47 10° SE visible
04 Sep 7.9 03:52:35 10° NE 03:55:24 15° ENE 03:58:29 10° ESE visible
04 Sep 5.2 05:31:29 10° NNW 05:36:33 50° W 05:41:33 10° SSW visible
05 Sep 5.1 04:57:50 10° N 05:03:05 83° E 05:08:18 10° S visible
06 Sep 6.2 04:24:33 10° NNE 04:29:29 42° E 04:34:26 10° SSE visible
